This is the latest recevied weather packets stored in our database for station/object K3SV. If no packets are shown the sender has not sent any weather packets the latest 10 day(s).
| Time | Temp. | Humidity | Pressure | Rain* | Wind** | Luminosity | Snow |
|---|---|---|---|---|---|---|---|
| 1778020689 | 30° C | 44% | 1014.1 hPa | 0 mm | - | 66 W/m² | - |
| 1778020386 | 30° C | 43% | 1014.1 hPa | 0 mm | - | 85 W/m² | - |
| 1778020082 | 30° C | 42% | 1014 hPa | 0 mm | - | 94 W/m² | - |
| 1778019778 | 30° C | 42% | 1014.2 hPa | 0 mm | - | 98 W/m² | - |
| 1778019475 | 30° C | 42% | 1014.2 hPa | 0 mm | - | 93 W/m² | - |
| 1778019171 | 30° C | 43% | 1014.1 hPa | 0 mm | - | 95 W/m² | - |
| 1778018868 | 30° C | 42% | 1014.1 hPa | 0 mm | - | 106 W/m² | - |
| 1778018565 | 31.11° C | 41% | 1013.9 hPa | 0 mm | - | 104 W/m² | - |
| 1778018263 | 31.11° C | 39% | 1013.9 hPa | 0 mm | - | 244 W/m² | - |
| 1778017961 | 31.67° C | 39% | 1014 hPa | 0 mm | - | 232 W/m² | - |
| 1778017659 | 32.22° C | 40% | 1014 hPa | 0 mm | - | 321 W/m² | - |
| 1778017355 | 31.67° C | 41% | 1014.1 hPa | 0 mm | - | 338 W/m² | - |
| 1778017053 | 30.56° C | 41% | 1013.9 hPa | 0 mm | - | 338 W/m² | - |
| 1778016750 | 31.11° C | 40% | 1014 hPa | 0 mm | - | 377 W/m² | - |
| 1778016446 | 32.22° C | 39% | 1014 hPa | 0 mm | - | 334 W/m² | - |
| 1778016144 | 31.67° C | 40% | 1013.9 hPa | 0 mm | - | 361 W/m² | - |
| 1778015840 | 31.11° C | 40% | 1014.1 hPa | 0 mm | - | 392 W/m² | - |
| 1778015538 | 31.11° C | 40% | 1014.1 hPa | 0 mm | - | 415 W/m² | - |
| 1778015234 | 30.56° C | 40% | 1014.1 hPa | 0 mm | - | 227 W/m² | - |
| 1778014931 | 30° C | 41% | 1014.1 hPa | 0 mm | - | 383 W/m² | - |
| 1778014629 | 31.11° C | 40% | 1014 hPa | 0 mm | - | 340 W/m² | - |
| 1778014327 | 30.56° C | 41% | 1014 hPa | 0 mm | - | 313 W/m² | - |
| 1778014023 | 31.11° C | 41% | 1013.9 hPa | 0 mm | - | 329 W/m² | - |
| 1778013721 | 31.67° C | 42% | 1014 hPa | 0 mm | - | 370 W/m² | - |
| 1778013418 | 31.67° C | 41% | 1013.9 hPa | 0 mm | - | 300 W/m² | - |
* Rain latest hour (hover to see other rain measurements)
** Current wind speed in m/s (hover to see current wind gust speed)